Location: Cardiff
(53.7833°N, 113.6000°W)
Time: 06:56:41
(UTC+00:00)

NOAA 15 - Pass Details

Date: 05 December 2023
Orbit: 797 x 810 km, 98.6° (Epoch: 04 March)

Event Time Altitude Azimuth Distance (km) Brightness Sun altitude
Rises 00:59:57 0° 130° (SE) 3,322 7.5 -14.3°
Reaches altitude 10° 01:02:28 10° 121° (ESE) 2,393 6.7 -14.7°
Maximum altitude 01:07:07 33° 60° (ENE) 1,349 5.2 -15.3°
Drops below altitude 10° 01:11:47 10° 358° (N) 2,399 6.9 -16.0°
Sets 01:14:19 0° 349° (N) 3,332 7.8 -16.3°
